STARLINK-31412, 59410

Orbit data source: Space-Track

STARLINK-31412, 59410 is a payload satellite owned by SpaceX/Seattle (US) in LEO that was launched on Fri, 05 Apr 2024 UTC via an FALCON 9 launch vehicle from the Air Force Eastern Test Range (AFETR). Payload-class satellites include a variety of spacecraft equipped with specific instruments for various scientific and technological missions. These include communications satellites like Starlink; space stations such as the ISS; scientific satellites like the Hubble; Earth observation satellites from companies like Planet Labs, Umbra, and HawkEye 360; GPS; miniature CubeSats for education and research; and military/defense satellites.

Loading next visibility...
Identifier
59410, 2024-064N
Orbit
LEO
Country
Flag of USUS
Related business
Manufacturer
SpaceX/Seattle
Mission
Operational Commercial Communications
Bus & Motor
STARLINK V2M, Unknown motor
Mass
730 kg wet, ~700 kg dry
Launch date (UTC)
2024-04-05 (2 years ago)
Launch vehicle
FALCON 9
Launch site
Air Force Eastern Test Range (AFETR)
Object type
Payload
Rocket body
Debris
Shape & HBR
Box + 2 Pan, 17.7 m
Radar Cross Section
33.884 m², Large (>1 m²)

Expand to show TLE details & history
Last TLE update: 2 days ago

TLE from 2 days ago
0 STARLINK-31412
1 59410U 24064N   26171.13364851  .00000927  00000-0  43210-4 0  9995
2 59410  43.0040 197.5912 0001537 275.6622  84.4055 15.27577926124893
Epoch: 2026-06-20T03:12Z
TLE epoch observation values (Epoch: 2026-06-20T03:12:27.231Z)
Latitude
0.00003°
Longitude
-118.87487°
Altitude
482.729 km
Speed
7.626 km/s
True Right ascension
13h 10m 21s
True Declination
0° 00' 00"
Sunlit
Object was in daylight at epoch
Visualization orbit readout
Latitude
Unknown
Longitude
Unknown
Altitude
Unknown
Speed
Unknown
Apparent Right ascension
Unknown
Apparent Declination
Unknown
Sunlit
N/A
Visualization observer readout
Local Sidereal Time
21:33:39
Azimuth
Unknown
Elevation
Unknown
Doppler factor
Unknown
Orbital elements
Apogee altitude
486.055 km
Perigee altitude
483.945 km
Semi-major axis
6,863.137 km
Eccentricity
0.00015
Inclination
43.004°
RAAN
197.5912°
Arg. of periapsis
275.6622°
True anomaly
84.42303°
Mean anomaly
84.4055°
Eccentric anomaly
84.41426°
Mean motion
3.81733 °/min
Orbital period
94.31 mins
BSTAR
0.00004321
Loading maneuver chart data...
Computing Atmospheric mass density...
Loading historical data...
Loading historical data...
Loading historical data...
Loading historical data...
Loading historical data...
Loading historical data...
Loading historical data...

Documentation

Showing up to 5 results
|